Time,TemperatureF,DewpointF,PressureIn,WindDirection,WindDirectionDegrees,WindSpeedMPH,WindSpeedGustMPH,Humidity,HourlyPrecipIn,Conditions,Clouds,dailyrainin,SoftwareType,DateUTC
2013-01-15 00:10:00,43.0,26.0,30.40,South,184,0.0,-999.0,52,-99.99,,,0.00,weatherlink.com 1.10,2013-01-15 08:10:00,
2013-01-15 00:25:00,42.8,28.0,30.40,South,186,0.0,-999.0,56,-99.99,,,0.00,weatherlink.com 1.10,2013-01-15 08:25:00,
2013-01-15 00:40:00,43.1,27.0,30.41,South,186,0.0,-999.0,54,-99.99,,,0.00,weatherlink.com 1.10,2013-01-15 08:40:00,
2013-01-15 00:55:00,43.2,28.0,30.41,South,186,0.0,-999.0,56,-99.99,,,0.00,weatherlink.com 1.10,2013-01-15 08:55:00,
2013-01-15 01:10:00,42.2,29.0,30.40,South,186,0.0,-999.0,61,-99.99,,,0.00,weatherlink.com 1.10,2013-01-15 09:10:00,
2013-01-15 01:25:00,43.1,30.0,30.40,South,186,0.0,-999.0,60,-99.99,,,0.00,weatherlink.com 1.10,2013-01-15 09:25:00,
2013-01-15 01:40:00,43.1,30.0,30.41,SSW,195,0.0,-999.0,61,-99.99,,,0.00,weatherlink.com 1.10,2013-01-15 09:40:00,
2013-01-15 01:55:00,42.6,31.0,30.41,SSW,196,0.0,-999.0,63,-99.99,,,0.00,weatherlink.com 1.10,2013-01-15 09:55:00,
2013-01-15 02:10:00,42.5,31.0,30.42,SSW,196,0.0,-999.0,64,-99.99,,,0.00,weatherlink.com 1.10,2013-01-15 10:10:00,
2013-01-15 02:25:00,41.9,30.0,30.42,SSW,196,0.0,-999.0,64,-99.99,,,0.00,weatherlink.com 1.10,2013-01-15 10:25:00,
2013-01-15 02:40:00,41.7,31.0,30.43,SSW,196,0.0,-999.0,65,-99.99,,,0.00,weatherlink.com 1.10,2013-01-15 10:40:00,
2013-01-15 02:55:00,40.7,30.0,30.43,SSW,195,0.0,-999.0,67,-99.99,,,0.00,weatherlink.com 1.10,2013-01-15 10:55:00,
2013-01-15 03:10:00,40.2,30.0,30.43,SSW,195,0.0,-999.0,67,-99.99,,,0.00,weatherlink.com 1.10,2013-01-15 11:10:00,
2013-01-15 03:25:00,39.7,30.0,30.43,SSW,195,0.0,-999.0,69,-99.99,,,0.00,weatherlink.com 1.10,2013-01-15 11:25:00,
2013-01-15 03:40:00,39.7,30.0,30.43,SSW,196,0.0,-999.0,69,-99.99,,,0.00,weatherlink.com 1.10,2013-01-15 11:40:00,
2013-01-15 03:55:00,39.4,31.0,30.43,SSW,196,0.0,-999.0,71,-99.99,,,0.00,weatherlink.com 1.10,2013-01-15 11:55:00,
2013-01-15 04:10:00,39.1,30.0,30.43,SSW,196,0.0,-999.0,71,-99.99,,,0.00,weatherlink.com 1.10,2013-01-15 12:10:00,
2013-01-15 04:25:00,39.0,31.0,30.43,SSW,196,0.0,-999.0,74,-99.99,,,0.00,weatherlink.com 1.10,2013-01-15 12:25:00,
2013-01-15 04:40:00,38.8,32.0,30.43,SSW,196,0.0,-999.0,77,-99.99,,,0.00,weatherlink.com 1.10,2013-01-15 12:40:00,
2013-01-15 04:55:00,38.8,33.0,30.42,SSW,196,0.0,-999.0,80,-99.99,,,0.00,weatherlink.com 1.10,2013-01-15 12:55:00,
2013-01-15 05:10:00,38.7,33.0,30.43,SSW,196,0.0,-999.0,80,-99.99,,,0.00,weatherlink.com 1.10,2013-01-15 13:10:00,
2013-01-15 05:25:00,38.5,33.0,30.43,SSW,195,0.0,-999.0,81,-99.99,,,0.00,weatherlink.com 1.10,2013-01-15 13:25:00,
2013-01-15 05:40:00,38.3,33.0,30.43,SSW,195,0.0,-999.0,82,-99.99,,,0.00,weatherlink.com 1.10,2013-01-15 13:40:00,
2013-01-15 05:55:00,38.4,34.0,30.43,SSW,194,0.0,-999.0,84,-99.99,,,0.00,weatherlink.com 1.10,2013-01-15 13:55:00,
2013-01-15 06:10:00,38.0,34.0,30.43,SSW,194,0.0,-999.0,84,-99.99,,,0.00,weatherlink.com 1.10,2013-01-15 14:10:00,
2013-01-15 06:25:00,37.5,33.0,30.43,SSW,194,0.0,-999.0,84,-99.99,,,0.00,weatherlink.com 1.10,2013-01-15 14:25:00,
2013-01-15 06:40:00,37.4,33.0,30.44,SSW,194,0.0,-999.0,84,-99.99,,,0.00,weatherlink.com 1.10,2013-01-15 14:40:00,
2013-01-15 06:55:00,37.2,33.0,30.45,SSW,194,0.0,-999.0,85,-99.99,,,0.00,weatherlink.com 1.10,2013-01-15 14:55:00,
2013-01-15 07:10:00,39.8,37.0,30.45,SSW,194,0.0,-999.0,88,-99.99,,,0.00,weatherlink.com 1.10,2013-01-15 15:10:00,
2013-01-15 07:25:00,39.1,36.0,30.45,SSW,194,0.0,-999.0,87,-99.99,,,0.00,weatherlink.com 1.10,2013-01-15 15:25:00,
2013-01-15 07:40:00,38.5,35.0,30.46,SSW,212,0.0,-999.0,86,-99.99,,,0.00,weatherlink.com 1.10,2013-01-15 15:40:00,
2013-01-15 07:55:00,38.4,35.0,30.47,West,273,0.0,-999.0,86,-99.99,,,0.00,weatherlink.com 1.10,2013-01-15 15:55:00,
2013-01-15 08:10:00,38.2,34.0,30.47,West,273,0.0,-999.0,85,-99.99,,,0.00,weatherlink.com 1.10,2013-01-15 16:10:00,
2013-01-15 08:25:00,39.8,35.0,30.47,West,273,0.0,-999.0,84,-99.99,,,0.00,weatherlink.com 1.10,2013-01-15 16:25:00,
2013-01-15 08:40:00,41.4,36.0,30.48,West,273,0.0,-999.0,81,-99.99,,,0.00,weatherlink.com 1.10,2013-01-15 16:40:00,
2013-01-15 08:55:00,42.9,33.0,30.48,WNW,296,1.0,-999.0,68,-99.99,,,0.00,weatherlink.com 1.10,2013-01-15 16:55:00,
2013-01-15 09:10:00,43.4,30.0,30.49,NW,315,0.0,-999.0,60,-99.99,,,0.00,weatherlink.com 1.10,2013-01-15 17:10:00,
2013-01-15 09:25:00,43.6,28.0,30.48,NW,319,1.0,-999.0,55,-99.99,,,0.00,weatherlink.com 1.10,2013-01-15 17:25:00,
2013-01-15 09:40:00,44.7,28.0,30.49,NE,48,2.0,-999.0,52,-99.99,,,0.00,weatherlink.com 1.10,2013-01-15 17:40:00,
2013-01-15 09:55:00,44.5,28.0,30.49,NW,309,0.0,-999.0,53,-99.99,,,0.00,weatherlink.com 1.10,2013-01-15 17:55:00,
2013-01-15 10:10:00,46.0,29.0,30.49,NNW,331,0.0,-999.0,51,-99.99,,,0.00,weatherlink.com 1.10,2013-01-15 18:10:00,
2013-01-15 10:25:00,47.5,30.0,30.49,NW,325,2.0,-999.0,51,-99.99,,,0.00,weatherlink.com 1.10,2013-01-15 18:25:00,
2013-01-15 10:40:00,48.6,30.0,30.48,ENE,71,1.0,-999.0,49,-99.99,,,0.00,weatherlink.com 1.10,2013-01-15 18:40:00,
2013-01-15 10:55:00,48.4,28.0,30.48,ESE,111,5.0,-999.0,45,-99.99,,,0.00,weatherlink.com 1.10,2013-01-15 18:55:00,
2013-01-15 11:10:00,48.2,29.0,30.48,ESE,106,6.0,-999.0,47,-99.99,,,0.00,weatherlink.com 1.10,2013-01-15 19:10:00,
2013-01-15 11:25:00,45.8,28.0,30.48,ESE,105,4.0,-999.0,51,-99.99,,,0.00,weatherlink.com 1.10,2013-01-15 19:25:00,
2013-01-15 11:40:00,45.8,27.0,30.47,ENE,74,6.0,-999.0,49,-99.99,,,0.00,weatherlink.com 1.10,2013-01-15 19:40:00,
2013-01-15 11:55:00,46.9,28.0,30.46,SE,124,0.0,-999.0,49,-99.99,,,0.00,weatherlink.com 1.10,2013-01-15 19:55:00,
2013-01-15 12:10:00,46.5,27.0,30.46,ESE,105,6.0,-999.0,46,-99.99,,,0.00,weatherlink.com 1.10,2013-01-15 20:10:00,
2013-01-15 12:25:00,49.0,28.0,30.45,SSE,148,0.0,-999.0,45,-99.99,,,0.00,weatherlink.com 1.10,2013-01-15 20:25:00,
2013-01-15 12:40:00,50.3,27.0,30.45,ESE,109,0.0,-999.0,41,-99.99,,,0.00,weatherlink.com 1.10,2013-01-15 20:40:00,
2013-01-15 13:10:00,50.3,28.0,30.44,ESE,118,0.0,-999.0,43,-99.99,,,0.00,weatherlink.com 1.10,2013-01-15 21:10:00,
2013-01-15 13:25:00,50.1,27.0,30.43,ESE,113,6.0,-999.0,41,-99.99,,,0.00,weatherlink.com 1.10,2013-01-15 21:25:00,
2013-01-15 13:40:00,49.2,29.0,30.43,SE,129,6.0,-999.0,45,-99.99,,,0.00,weatherlink.com 1.10,2013-01-15 21:40:00,
2013-01-15 13:55:00,48.9,29.0,30.43,SE,126,0.0,-999.0,46,-99.99,,,0.00,weatherlink.com 1.10,2013-01-15 21:55:00,
2013-01-15 14:10:00,49.0,28.0,30.43,ENE,72,0.0,-999.0,45,-99.99,,,0.00,weatherlink.com 1.10,2013-01-15 22:10:00,
2013-01-15 14:25:00,49.9,29.0,30.43,SE,145,0.0,-999.0,44,-99.99,,,0.00,weatherlink.com 1.10,2013-01-15 22:25:00,
2013-01-15 14:40:00,50.7,28.0,30.43,SE,133,3.0,-999.0,41,-99.99,,,0.00,weatherlink.com 1.10,2013-01-15 22:40:00,
2013-01-15 14:55:00,50.3,28.0,30.43,ESE,117,0.0,-999.0,43,-99.99,,,0.00,weatherlink.com 1.10,2013-01-15 22:55:00,
2013-01-15 15:10:00,48.1,28.0,30.43,ESE,121,4.0,-999.0,46,-99.99,,,0.00,weatherlink.com 1.10,2013-01-15 23:10:00,
2013-01-15 15:25:00,47.4,28.0,30.43,ESE,108,6.0,-999.0,47,-99.99,,,0.00,weatherlink.com 1.10,2013-01-15 23:25:00,
2013-01-15 15:40:00,47.9,30.0,30.43,ESE,114,1.0,-999.0,50,-99.99,,,0.00,weatherlink.com 1.10,2013-01-15 23:40:00,
2013-01-15 15:55:00,50.0,31.0,30.43,SSE,152,0.0,-999.0,48,-99.99,,,0.00,weatherlink.com 1.10,2013-01-15 23:55:00,
2013-01-15 16:10:00,50.4,31.0,30.43,SSE,157,0.0,-999.0,47,-99.99,,,0.00,weatherlink.com 1.10,2013-01-16 00:10:00,
2013-01-15 16:25:00,49.0,30.0,30.44,NNW,327,1.0,-999.0,48,-99.99,,,0.00,weatherlink.com 1.10,2013-01-16 00:25:00,
2013-01-15 16:40:00,46.0,30.0,30.44,NNW,328,4.0,-999.0,53,-99.99,,,0.00,weatherlink.com 1.10,2013-01-16 00:40:00,
2013-01-15 16:55:00,45.4,30.0,30.44,NW,324,3.0,-999.0,55,-99.99,,,0.00,weatherlink.com 1.10,2013-01-16 00:55:00,
2013-01-15 17:10:00,45.4,31.0,30.44,NW,323,3.0,-999.0,57,-99.99,,,0.00,weatherlink.com 1.10,2013-01-16 01:10:00,
2013-01-15 17:25:00,44.9,31.0,30.44,NW,316,0.0,-999.0,58,-99.99,,,0.00,weatherlink.com 1.10,2013-01-16 01:25:00,
2013-01-15 17:40:00,44.5,29.0,30.44,NNW,327,1.0,-999.0,54,-99.99,,,0.00,weatherlink.com 1.10,2013-01-16 01:40:00,
2013-01-15 17:55:00,44.5,29.0,30.43,NNW,327,1.0,-999.0,55,-99.99,,,0.00,weatherlink.com 1.10,2013-01-16 01:55:00,
2013-01-15 18:10:00,44.7,29.0,30.43,NW,319,4.0,-999.0,54,-99.99,,,0.00,weatherlink.com 1.10,2013-01-16 02:10:00,
2013-01-15 18:25:00,44.7,28.0,30.44,NW,319,2.0,-999.0,53,-99.99,,,0.00,weatherlink.com 1.10,2013-01-16 02:25:00,
2013-01-15 18:40:00,44.4,28.0,30.43,NW,319,0.0,-999.0,53,-99.99,,,0.00,weatherlink.com 1.10,2013-01-16 02:40:00,
2013-01-15 18:55:00,44.7,27.0,30.44,NW,320,0.0,-999.0,51,-99.99,,,0.00,weatherlink.com 1.10,2013-01-16 02:55:00,
2013-01-15 19:10:00,44.7,27.0,30.44,NW,321,0.0,-999.0,50,-99.99,,,0.00,weatherlink.com 1.10,2013-01-16 03:10:00,
2013-01-15 19:25:00,44.5,29.0,30.44,NW,321,0.0,-999.0,54,-99.99,,,0.00,weatherlink.com 1.10,2013-01-16 03:25:00,
2013-01-15 19:40:00,45.2,27.0,30.44,NW,321,2.0,-999.0,49,-99.99,,,0.00,weatherlink.com 1.10,2013-01-16 03:40:00,
2013-01-15 19:55:00,45.0,27.0,30.43,NW,321,2.0,-999.0,49,-99.99,,,0.00,weatherlink.com 1.10,2013-01-16 03:55:00,
2013-01-15 20:10:00,45.0,27.0,30.43,NNW,345,3.0,-999.0,50,-99.99,,,0.00,weatherlink.com 1.10,2013-01-16 04:10:00,
2013-01-15 20:25:00,45.0,28.0,30.43,NNW,346,0.0,-999.0,51,-99.99,,,0.00,weatherlink.com 1.10,2013-01-16 04:25:00,
2013-01-15 20:40:00,44.7,28.0,30.43,NNW,347,0.0,-999.0,53,-99.99,,,0.00,weatherlink.com 1.10,2013-01-16 04:40:00,
2013-01-15 20:55:00,44.7,28.0,30.42,NNW,338,2.0,-999.0,52,-99.99,,,0.00,weatherlink.com 1.10,2013-01-16 04:55:00,
2013-01-15 21:10:00,45.0,28.0,30.43,NNW,341,0.0,-999.0,51,-99.99,,,0.00,weatherlink.com 1.10,2013-01-16 05:10:00,
2013-01-15 21:25:00,44.0,28.0,30.42,NNW,341,0.0,-999.0,53,-99.99,,,0.00,weatherlink.com 1.10,2013-01-16 05:25:00,
2013-01-15 21:40:00,44.5,28.0,30.42,North,360,0.0,-999.0,52,-99.99,,,0.00,weatherlink.com 1.10,2013-01-16 05:40:00,
2013-01-15 21:55:00,44.0,28.0,30.43,North,5,2.0,-999.0,53,-99.99,,,0.00,weatherlink.com 1.10,2013-01-16 05:55:00,
2013-01-15 22:10:00,44.1,28.0,30.42,NNW,327,4.0,-999.0,53,-99.99,,,0.00,weatherlink.com 1.10,2013-01-16 06:10:00,
2013-01-15 22:25:00,44.2,28.0,30.42,NW,326,1.0,-999.0,53,-99.99,,,0.00,weatherlink.com 1.10,2013-01-16 06:25:00,
2013-01-15 22:40:00,44.5,28.0,30.43,NNW,339,3.0,-999.0,53,-99.99,,,0.00,weatherlink.com 1.10,2013-01-16 06:40:00,
2013-01-15 22:55:00,44.7,28.0,30.43,NNW,334,3.0,-999.0,52,-99.99,,,0.00,weatherlink.com 1.10,2013-01-16 06:55:00,
2013-01-15 23:10:00,44.6,27.0,30.43,NW,323,2.0,-999.0,50,-99.99,,,0.00,weatherlink.com 1.10,2013-01-16 07:10:00,
2013-01-15 23:25:00,44.6,26.0,30.43,NNW,330,5.0,-999.0,49,-99.99,,,0.00,weatherlink.com 1.10,2013-01-16 07:25:00,
2013-01-15 23:40:00,44.5,27.0,30.43,NNW,330,1.0,-999.0,50,-99.99,,,0.00,weatherlink.com 1.10,2013-01-16 07:40:00,
2013-01-15 23:55:00,44.3,27.0,30.43,NNW,329,1.0,-999.0,51,-99.99,,,0.00,weatherlink.com 1.10,2013-01-16 07:55:00,